Location: Unspecified
(33.2560°N, 0.0000°E)
Time: 09:50:08
(UTC+00:00)

CHECKMATE 4 - Visible Passes

Search period start: 04 April 2026 00:00
Search period end: 14 April 2026 00:00
Orbit: 940 x 951 km, 81.0° (Epoch: 29 March)

Date Brightness Start Highest point End Pass type
(mag) Time Alt. Az. Time Alt. Az. Time Alt. Az.
4 Apr ? 20:36:27 41° NE 20:36:27 41° NE 20:40:36 10° NNE visible
4 Apr ? 22:20:23 18° WNW 22:20:23 18° WNW 22:24:00 10° NNW visible
5 Apr ? 20:51:28 76° NNE 20:51:28 76° NNE 20:57:05 10° N visible
5 Apr ? 22:35:44 10° WNW 22:36:40 10° WNW 22:37:35 10° WNW visible
6 Apr ? 19:22:21 16° E 19:22:56 16° E 19:26:30 10° NE visible
6 Apr ? 21:06:15 50° WSW 21:07:18 57° W 21:13:19 10° N visible
7 Apr ? 19:36:44 22° ESE 19:39:00 27° E 19:44:00 10° NE visible
7 Apr ? 21:20:35 22° SW 21:23:45 35° WNW 21:29:16 10° N visible
8 Apr ? 19:50:12 14° SSE 19:55:09 45° E 20:00:55 10° NNE visible
8 Apr ? 21:35:45 10° WSW 21:40:18 22° WNW 21:44:51 10° NNW visible
9 Apr ? 20:05:19 10° S 20:11:24 74° E 20:17:29 10° NNE visible
9 Apr ? 21:54:21 10° W 21:56:58 13° WNW 21:59:35 10° NW visible
10 Apr ? 20:21:40 10° SSW 20:27:43 68° W 20:33:48 10° N visible
11 Apr ? 18:54:56 10° SE 18:59:32 23° E 19:04:07 10° NE visible
11 Apr ? 20:38:25 10° SSW 20:44:08 41° WNW 20:49:53 10° N visible
12 Apr ? 19:10:07 10° SSE 19:15:39 37° E 19:21:12 10° NNE visible
12 Apr ? 20:55:42 10° SW 21:00:39 26° WNW 21:05:38 10° NNW visible
13 Apr ? 19:25:53 10° S 19:31:52 62° E 19:37:52 10° NNE visible
13 Apr ? 21:13:47 10° WSW 21:17:16 16° WNW 21:20:47 10° NW visible
